TimeCDT,TemperatureF,Dew PointF,Humidity,Sea Level PressureIn,VisibilityMPH,Wind Direction,Wind SpeedMPH,Gust SpeedMPH,PrecipitationIn,Events,Conditions,WindDirDegrees,DateUTC
12:15 AM,60.4,50.2,69,30.10,10.0,Calm,Calm,-,N/A,,Clear,0,2013-09-28 05:15:00
12:35 AM,60.3,50.7,71,30.09,10.0,Calm,Calm,-,N/A,,Clear,0,2013-09-28 05:35:00
12:55 AM,60.6,50.7,70,30.09,10.0,South,4.6,-,N/A,,Clear,170,2013-09-28 05:55:00
1:15 AM,59.4,50.9,74,30.09,10.0,SE,3.5,-,N/A,,Clear,140,2013-09-28 06:15:00
1:35 AM,58.5,50.7,75,30.09,10.0,SE,3.5,-,N/A,,Clear,130,2013-09-28 06:35:00
1:55 AM,57.9,50.5,76,30.09,10.0,ESE,3.5,-,N/A,,Clear,120,2013-09-28 06:55:00
2:15 AM,57.4,50.7,78,30.09,10.0,Calm,Calm,-,N/A,,Clear,0,2013-09-28 07:15:00
2:35 AM,57.4,50.7,78,30.08,10.0,Calm,Calm,-,N/A,,Clear,0,2013-09-28 07:35:00
2:55 AM,56.8,50.5,79,30.09,10.0,Calm,Calm,-,N/A,,Clear,0,2013-09-28 07:55:00
3:15 AM,56.8,50.4,79,30.08,10.0,Calm,Calm,-,N/A,,Clear,0,2013-09-28 08:15:00
3:35 AM,56.7,50.9,81,30.08,10.0,Calm,Calm,-,N/A,,Clear,0,2013-09-28 08:35:00
3:55 AM,56.3,50.9,82,30.09,10.0,ESE,3.5,-,N/A,,Clear,110,2013-09-28 08:55:00
4:15 AM,56.3,50.9,82,30.09,10.0,Calm,Calm,-,N/A,,Clear,0,2013-09-28 09:15:00
4:35 AM,55.9,50.4,82,30.08,10.0,Calm,Calm,-,N/A,,Clear,0,2013-09-28 09:35:00
4:55 AM,55.4,50.2,83,30.08,10.0,Calm,Calm,-,N/A,,Clear,0,2013-09-28 09:55:00
5:15 AM,55.2,50.2,83,30.09,10.0,Calm,Calm,-,N/A,,Clear,0,2013-09-28 10:15:00
5:35 AM,55.0,50.4,84,30.09,10.0,ESE,3.5,-,N/A,,Clear,110,2013-09-28 10:35:00
5:55 AM,54.5,50.0,85,30.10,10.0,Calm,Calm,-,N/A,,Clear,0,2013-09-28 10:55:00
6:15 AM,54.5,50.2,85,30.10,10.0,ESE,3.5,-,N/A,,Clear,120,2013-09-28 11:15:00
6:35 AM,54.0,50.0,86,30.10,7.0,ESE,3.5,-,N/A,,Clear,110,2013-09-28 11:35:00
6:55 AM,53.8,49.8,86,30.11,7.0,SE,4.6,-,N/A,,Clear,130,2013-09-28 11:55:00
7:15 AM,54.9,50.5,85,30.11,5.0,SE,4.6,-,N/A,,Clear,130,2013-09-28 12:15:00
7:35 AM,55.9,51.1,84,30.11,7.0,SE,3.5,-,N/A,,Clear,140,2013-09-28 12:35:00
7:55 AM,56.7,51.8,84,30.11,7.0,SE,3.5,-,N/A,,Clear,140,2013-09-28 12:55:00
8:15 AM,59.0,53.1,81,30.11,10.0,SSE,4.6,-,N/A,,Clear,160,2013-09-28 13:15:00
8:35 AM,62.1,54.5,76,30.12,10.0,SSE,6.9,-,N/A,,Clear,160,2013-09-28 13:35:00
8:55 AM,64.9,55.2,71,30.12,10.0,South,6.9,-,N/A,,Clear,170,2013-09-28 13:55:00
9:15 AM,67.5,55.8,66,30.11,10.0,South,6.9,-,N/A,,Clear,170,2013-09-28 14:15:00
9:35 AM,71.1,55.8,58,30.11,10.0,South,10.4,-,N/A,,Scattered Clouds,180,2013-09-28 14:35:00
9:55 AM,74.3,55.9,53,30.11,10.0,South,10.4,-,N/A,,Scattered Clouds,180,2013-09-28 14:55:00
10:15 AM,76.8,56.7,50,30.10,10.0,SSW,12.7,17.3,N/A,,Clear,200,2013-09-28 15:15:00
10:35 AM,77.9,57.0,48,30.09,10.0,South,12.7,-,N/A,,Clear,190,2013-09-28 15:35:00
10:55 AM,79.5,57.6,47,30.08,10.0,SSW,10.4,17.3,N/A,,Clear,200,2013-09-28 15:55:00
11:15 AM,80.2,56.8,45,30.08,10.0,SSW,13.8,19.6,N/A,,Clear,210,2013-09-28 16:15:00
11:35 AM,80.8,56.3,43,30.07,10.0,SSW,13.8,18.4,N/A,,Clear,200,2013-09-28 16:35:00
11:55 AM,82.2,55.4,40,30.06,10.0,SSW,12.7,23.0,N/A,,Scattered Clouds,200,2013-09-28 16:55:00
12:15 PM,84.2,51.8,33,30.06,10.0,SSW,15.0,23.0,N/A,,Mostly Cloudy,200,2013-09-28 17:15:00
12:35 PM,83.5,51.4,33,30.05,10.0,SSW,15.0,20.7,N/A,,Scattered Clouds,210,2013-09-28 17:35:00
1:15 PM,84.4,51.3,32,30.03,10.0,SSW,12.7,20.7,N/A,,Scattered Clouds,210,2013-09-28 18:15:00
1:35 PM,84.4,51.1,32,30.02,10.0,South,16.1,25.3,N/A,,Clear,190,2013-09-28 18:35:00
1:55 PM,85.1,50.0,30,30.02,10.0,SSW,18.4,26.5,N/A,,Clear,200,2013-09-28 18:55:00
2:15 PM,85.3,49.1,28,30.01,10.0,SSW,18.4,25.3,N/A,,Clear,210,2013-09-28 19:15:00
2:35 PM,85.6,50.2,29,30.02,10.0,SSW,15.0,21.9,N/A,,Clear,200,2013-09-28 19:35:00
3:15 PM,84.4,50.4,31,30.01,10.0,SSW,19.6,25.3,N/A,,Clear,210,2013-09-28 20:15:00
3:35 PM,85.5,49.6,29,30.00,10.0,SSW,17.3,24.2,N/A,,Clear,200,2013-09-28 20:35:00
3:55 PM,84.4,50.0,30,30.00,10.0,SSW,12.7,23.0,N/A,,Clear,210,2013-09-28 20:55:00
4:15 PM,85.1,50.2,30,29.99,10.0,SSW,15.0,23.0,N/A,,Scattered Clouds,200,2013-09-28 21:15:00
4:35 PM,84.0,51.1,32,29.99,10.0,SSW,13.8,18.4,N/A,,Scattered Clouds,200,2013-09-28 21:35:00
4:55 PM,82.6,52.0,35,29.99,10.0,South,15.0,20.7,N/A,,Clear,190,2013-09-28 21:55:00
5:15 PM,81.5,52.0,36,29.99,10.0,SSW,10.4,-,N/A,,Clear,200,2013-09-28 22:15:00
5:35 PM,81.3,52.9,37,29.99,10.0,South,10.4,-,N/A,,Clear,180,2013-09-28 22:35:00
5:55 PM,81.7,52.0,36,29.98,10.0,South,12.7,20.7,N/A,,Clear,190,2013-09-28 22:55:00
6:15 PM,80.4,52.3,38,29.98,10.0,South,11.5,-,N/A,,Clear,190,2013-09-28 23:15:00
6:35 PM,78.8,52.9,40,29.98,10.0,South,9.2,-,N/A,,Scattered Clouds,180,2013-09-28 23:35:00
6:55 PM,76.8,53.6,44,29.98,10.0,South,6.9,-,N/A,,Clear,170,2013-09-28 23:55:00
7:15 PM,76.1,53.8,46,29.98,10.0,South,8.1,-,N/A,,Mostly Cloudy,170,2013-09-29 00:15:00
7:35 PM,75.2,54.1,48,29.98,10.0,South,8.1,-,N/A,,Mostly Cloudy,170,2013-09-29 00:35:00
7:55 PM,75.2,54.0,47,29.98,10.0,South,9.2,-,N/A,,Mostly Cloudy,170,2013-09-29 00:55:00
8:15 PM,75.2,53.8,47,29.97,10.0,South,9.2,-,N/A,,Mostly Cloudy,170,2013-09-29 01:15:00
8:35 PM,74.8,53.8,48,29.98,10.0,South,6.9,-,N/A,,Overcast,190,2013-09-29 01:35:00
8:55 PM,75.2,54.0,47,29.99,10.0,South,6.9,-,N/A,,Overcast,180,2013-09-29 01:55:00
9:15 PM,74.7,54.5,49,29.99,10.0,South,6.9,-,N/A,,Overcast,170,2013-09-29 02:15:00
9:35 PM,74.7,54.7,50,29.99,10.0,South,8.1,-,N/A,,Overcast,180,2013-09-29 02:35:00
9:55 PM,75.2,54.5,48,29.99,10.0,South,12.7,-,N/A,,Overcast,180,2013-09-29 02:55:00
10:15 PM,75.4,54.7,48,29.99,10.0,South,11.5,-,N/A,,Overcast,190,2013-09-29 03:15:00
10:35 PM,75.2,54.9,49,29.99,10.0,South,10.4,-,N/A,,Mostly Cloudy,190,2013-09-29 03:35:00
10:55 PM,74.8,54.9,50,29.99,10.0,South,12.7,17.3,N/A,,Overcast,190,2013-09-29 03:55:00
11:15 PM,74.5,54.9,50,29.99,10.0,South,10.4,-,N/A,,Mostly Cloudy,190,2013-09-29 04:15:00
11:35 PM,74.3,55.0,51,29.99,10.0,South,10.4,-,N/A,,Overcast,190,2013-09-29 04:35:00
11:55 PM,73.8,55.4,53,29.99,10.0,South,11.5,-,N/A,,Overcast,190,2013-09-29 04:55:00